Tracking 28091 objects as of 30-Sep-2023
HD Live streaming from Space Station
objects crossing your sky now

STARLINK-6029

Track STARLINK-6029 now!
10-day predictions
STARLINK-6029 is classified as:


NORAD ID: 56803
Int'l Code: 2023-078AN
Perigee: 499.8 km
Apogee: 504.5 km
Inclination: 70.0 °
Period: 94.5 minutes
Semi major axis: 6873 km
RCS: Unknown
Launch date: May 31, 2023
Source: United States (US)
Launch site: AIR FORCE WESTERN TEST RANGE (AFWTR)
Your satellite tracking list
Your tracking list is empty




NASA's NSSDC Master Catalog

Two Line Element Set (TLE):
1 56803U 23078AN  23273.50001157 -.00934945  00000-0 -42066-1 0  9993
2 56803  70.0000  72.0903 0003409 268.0574  56.8966 15.23596065 19439
Source of the keplerian elements: AFSPC